Wind_Speed
24 24 24 24 24 25 25 24 24 23 23 23 23 23 23 23 23 23 22 22 22 22 22 23 23 24 23 23 23 24 24 24 24 23 24 25 26 26
23 23 23 24 23 23 23 23 22 22 22 21 21 21 22 22 22 22 21 21 20 20 21 21 22 24 23 23 24 25 25 25 25 25 25 26 27 27
21 22 22 22 21 22 22 21 21 21 20 20 21 21 21 21 21 21 22 21 21 20 21 21 22 22 24 24 24 24 24 25 25 25 26 26 27 27
19 19 20 20 20 21 22 22 21 20 20 20 20 20 20 20 20 20 21 21 21 21 21 21 21 21 22 23 23 24 24 24 25 25 25 26 27 27
19 18 18 18 19 20 20 21 21 20 20 21 21 20 20 19 19 19 20 20 21 21 21 21 21 20 21 22 22 23 23 24 25 25 25 25 26 26
17 17 17 17 17 18 19 19 20 21 21 20 20 20 20 19 19 19 19 20 20 20 20 20 20 20 20 21 21 22 22 23 23 23 23 23 24 25
15 15 15 15 15 15 17 17 18 19 20 20 20 19 19 18 18 19 19 19 20 20 19 19 19 19 20 20 21 22 21 21 22 22 21 22 22 23
15 14 14 14 14 14 15 15 16 17 18 18 18 19 19 18 18 19 19 19 19 19 19 19 19 19 20 20 21 21 21 21 21 21 22 22 22 22
14 13 13 13 13 13 13 14 14 15 15 16 17 17 18 18 18 19 19 19 18 18 18 18 18 19 19 19 20 20 21 21 21 21 22 22 22 23
13 12 12 11 11 11 12 12 13 13 14 15 15 15 16 17 17 17 18 18 18 18 18 18 18 18 18 19 19 19 20 21 21 22 22 23 24 24
12 11 10 9 9 8 9 9 10 11 12 13 14 15 15 16 16 17 17 18 18 18 18 18 18 18 18 19 19 19 20 21 21 22 22 23 24 24
11 10 9 9 8 7 7 8 9 10 11 12 13 14 14 15 15 16 17 17 17 18 18 18 18 19 19 20 19 20 21 21 21 22 22 23 22 23
11 10 9 8 8 7 7 7 8 9 11 12 12 13 13 14 14 15 16 16 17 17 18 18 18 19 19 20 20 20 21 21 21 22 22 22 22 22
11 9 9 8 8 8 8 8 9 10 10 11 12 12 13 14 14 15 16 16 17 17 18 18 19 20 20 21 21 21 21 22 22 22 22 22 23 23
11 11 10 9 9 9 9 10 10 10 10 10 11 12 13 14 14 14 15 16 17 18 19 19 20 20 20 20 21 21 21 21 22 22 22 23 23 24
11 11 11 10 10 10 10 10 10 10 10 11 12 13 14 14 15 15 16 17 17 18 19 20 21 21 22 21 21 21 21 22 22 22 22 22 23 23
12 12 12 12 11 11 11 11 10 11 11 12 13 13 14 15 16 17 17 18 19 20 20 21 21 22 23 23 23 23 23 22 22 22 23 23 23 24
13 14 14 14 13 13 13 13 13 13 14 14 15 15 16 17 18 18 19 19 19 20 21 21 22 22 22 23 23 24 25 25 25 25 25 25 25 26
15 16 15 15 15 15 15 15 15 16 16 17 18 18 19 19 19 20 20 21 21 21 22 22 23 24 24 23 24 25 25 26 27 27 28 28 28 28
17 17 17 17 17 17 17 16 17 18 19 19 19 20 20 20 21 21 22 22 23 23 24 24 25 25 26 27 26 26 26 27 28 29 29 30 29 30
18 19 19 19 19 19 19 20 20 20 21 21 21 22 22 22 22 23 23 24 25 26 26 26 27 28 28 29 28 28 28 29 30 30 30 31 31 31
20 20 21 21 21 21 21 21 22 22 22 22 23 23 24 25 25 25 26 26 26 27 27 28 28 28 29 29 29 29 29 30 31 31 32 32 32 32
22 22 22 22 23 23 23 23 23 24 24 24 24 24 25 26 26 26 26 27 28 28 29 29 29 29 30 30 31 31 32 32 33 33 33 34 34 34
Wind_Direction
281 277 274 270 264 261 260 260 259 258 257 257 257 258 259 259 260 261 261 261 260 257 256 256 256 255 256 255 254 254 254 255 254 254 254 255 256 256
283 278 274 269 265 260 259 260 260 259 257 257 257 258 260 260 261 261 261 260 258 257 257 257 257 255 256 255 254 254 254 256 257 259 258 258 259 258
286 280 275 271 266 263 259 258 257 258 256 256 257 258 261 262 261 259 258 259 258 258 259 261 261 259 258 257 256 254 255 256 258 260 260 260 260 260
291 285 280 274 269 265 262 259 257 256 255 255 256 257 259 260 259 257 257 258 258 258 260 262 262 261 261 259 257 257 256 257 258 260 260 259 258 258
295 288 282 276 272 268 264 260 257 256 255 254 255 256 257 256 257 258 259 260 259 259 260 262 262 260 261 262 262 259 258 258 257 257 258 258 258 257
298 292 286 281 277 269 263 261 258 256 255 254 254 256 255 257 257 256 258 259 260 261 260 262 264 263 264 264 264 261 260 260 258 257 259 260 260 259
304 298 292 285 281 274 265 264 261 257 256 254 254 254 255 257 257 258 260 261 262 262 263 264 264 264 265 266 265 265 263 263 261 260 262 262 261 261
306 303 296 290 285 277 267 265 262 259 258 256 254 254 255 258 260 261 262 261 262 262 263 264 267 266 267 268 267 265 265 266 265 264 263 263 264 264
308 305 301 297 287 279 272 268 264 260 258 256 256 255 257 258 259 260 261 262 262 262 264 266 268 268 268 269 267 265 264 264 265 265 263 264 266 266
311 307 304 299 290 282 275 269 263 260 257 257 257 258 260 261 260 259 260 261 262 262 263 264 266 268 268 269 267 265 266 265 264 264 265 264 264 264
318 314 309 305 301 291 279 271 265 261 259 260 260 263 264 263 261 260 259 260 260 262 263 263 264 266 267 268 266 265 266 267 266 266 267 268 266 263
326 323 317 312 308 300 290 283 273 265 262 263 263 265 266 264 263 261 259 259 260 261 263 264 265 266 267 267 267 268 269 269 268 268 268 269 267 266
326 326 320 314 312 309 302 291 283 275 270 269 268 267 266 264 264 263 261 261 262 263 264 264 266 268 270 270 269 270 270 269 269 269 269 270 269 269
330 326 321 316 314 311 304 296 290 285 278 272 270 269 269 267 265 264 263 262 262 265 266 267 268 270 271 271 271 270 270 270 271 271 270 270 271 271
334 334 327 319 313 308 304 300 295 287 280 275 273 271 271 271 269 266 266 266 265 265 266 269 271 272 273 273 273 272 272 272 272 271 272 272 271 271
329 330 328 323 318 312 305 301 295 291 287 283 280 278 276 272 271 270 268 267 268 269 270 270 272 272 273 274 273 273 272 271 271 272 273 273 273 273
328 327 325 320 316 313 310 305 301 295 291 288 286 285 282 278 276 277 275 272 271 272 272 273 273 273 274 275 274 274 273 271 272 273 273 274 275 275
334 330 324 318 313 310 307 305 303 301 296 292 288 286 285 281 279 279 278 276 275 275 275 275 276 276 275 275 276 275 273 272 273 273 274 274 274 275
328 327 325 322 318 312 307 303 300 299 297 294 291 289 288 285 282 280 279 278 278 277 277 277 276 277 277 276 276 277 277 275 274 275 275 275 276 276
325 322 322 320 318 314 309 305 302 299 296 294 291 290 289 288 285 283 281 280 279 278 278 278 277 276 277 277 276 277 278 278 278 278 277 277 277 277
323 322 320 317 314 311 307 304 302 300 298 295 292 289 288 289 288 285 282 280 279 279 280 279 278 277 276 276 277 278 278 277 278 279 279 278 278 278
320 318 316 315 313 311 308 305 303 301 299 297 294 291 289 288 287 285 284 282 280 280 280 279 278 278 276 276 277 277 277 277 278 279 280 280 281 280
318 317 316 314 312 310 309 307 305 302 300 298 293 291 290 289 288 286 286 284 283 282 280 279 277 277 277 277 277 277 278 278 278 279 280 281 281 281
Height
5734 5734 5734 5734 5735 5736 5738 5739 5741 5742 5744 5746 5747 5749 5750 5752 5753 5755 5756 5757 5758 5759 5761 5762 5763 5764 5766 5767 5768 5770 5772 5773 5775 5776 5778 5779 5781 5782
5727 5727 5727 5727 5728 5729 5731 5732 5734 5736 5738 5740 5741 5742 5744 5746 5747 5749 5750 5751 5752 5754 5755 5756 5757 5758 5760 5761 5762 5764 5765 5767 5768 5769 5771 5772 5773 5775
5721 5721 5721 5721 5721 5722 5724 5725 5727 5729 5731 5733 5735 5736 5738 5740 5741 5743 5744 5746 5747 5748 5749 5750 5751 5752 5753 5754 5755 5757 5758 5760 5761 5762 5764 5765 5766 5767
5716 5715 5715 5715 5715 5716 5717 5719 5721 5723 5725 5727 5729 5730 5732 5734 5735 5737 5738 5740 5741 5742 5743 5744 5745 5746 5747 5748 5749 5750 5751 5753 5754 5755 5756 5758 5758 5759
5711 5710 5710 5709 5709 5710 5711 5713 5715 5717 5719 5721 5723 5725 5726 5728 5730 5731 5733 5734 5735 5736 5737 5738 5739 5740 5740 5742 5742 5743 5744 5746 5747 5748 5749 5750 5751 5752
5707 5706 5705 5705 5705 5705 5706 5707 5709 5711 5713 5715 5717 5719 5721 5722 5724 5725 5727 5728 5730 5730 5731 5732 5733 5734 5734 5735 5736 5737 5738 5738 5739 5740 5741 5742 5743 5744
5704 5702 5702 5701 5701 5701 5702 5703 5704 5706 5707 5709 5712 5714 5716 5717 5718 5720 5721 5722 5723 5724 5726 5727 5728 5728 5728 5729 5729 5730 5731 5731 5732 5733 5734 5735 5736 5736
5701 5699 5698 5698 5698 5697 5697 5698 5699 5701 5703 5704 5707 5709 5710 5712 5713 5714 5715 5717 5718 5719 5720 5721 5722 5722 5722 5723 5723 5723 5724 5724 5725 5726 5727 5728 5728 5729
5698 5697 5696 5695 5694 5694 5694 5695 5696 5697 5699 5700 5702 5703 5705 5706 5708 5709 5710 5711 5712 5713 5714 5715 5716 5716 5716 5716 5716 5717 5717 5718 5718 5719 5719 5720 5721 5722
5697 5695 5693 5692 5691 5691 5691 5692 5693 5694 5695 5696 5698 5699 5700 5701 5702 5703 5704 5706 5707 5707 5708 5709 5709 5710 5710 5710 5710 5710 5711 5711 5711 5712 5712 5713 5714 5714
5695 5693 5692 5690 5690 5689 5689 5689 5690 5691 5692 5693 5694 5695 5696 5696 5697 5698 5699 5700 5701 5702 5702 5703 5703 5704 5704 5704 5704 5704 5705 5705 5705 5705 5706 5706 5706 5707
5694 5692 5690 5689 5688 5688 5687 5687 5688 5688 5689 5690 5690 5691 5692 5692 5693 5694 5694 5695 5696 5696 5697 5697 5697 5698 5698 5698 5699 5698 5698 5698 5699 5699 5699 5699 5699 5699
5693 5691 5690 5688 5687 5686 5686 5686 5686 5686 5686 5687 5687 5687 5688 5688 5688 5689 5690 5690 5691 5691 5691 5691 5692 5692 5692 5692 5692 5692 5692 5692 5692 5692 5692 5692 5692 5692
5692 5691 5689 5688 5686 5685 5685 5684 5683 5683 5683 5683 5684 5684 5684 5684 5684 5684 5685 5685 5685 5686 5686 5686 5686 5686 5686 5686 5686 5686 5686 5686 5686 5685 5685 5685 5685 5685
5692 5690 5689 5687 5685 5684 5683 5682 5681 5681 5681 5681 5681 5681 5680 5680 5680 5680 5680 5680 5680 5680 5680 5680 5680 5680 5680 5680 5680 5679 5679 5679 5679 5679 5678 5678 5678 5678
5691 5690 5688 5686 5684 5683 5682 5680 5679 5679 5678 5678 5677 5677 5677 5676 5676 5675 5675 5675 5675 5675 5674 5674 5674 5673 5673 5673 5673 5673 5672 5672 5672 5672 5671 5671 5671 5670
5690 5689 5687 5685 5683 5682 5680 5679 5677 5676 5675 5675 5674 5673 5672 5672 5671 5670 5670 5670 5670 5669 5669 5668 5667 5666 5666 5666 5666 5665 5665 5665 5665 5664 5664 5664 5663 5663
5689 5687 5685 5683 5681 5679 5678 5676 5675 5673 5672 5671 5670 5669 5668 5667 5666 5665 5665 5664 5663 5662 5662 5661 5661 5660 5660 5659 5659 5658 5657 5657 5657 5656 5656 5655 5655 5654
5687 5685 5683 5680 5678 5676 5674 5673 5671 5669 5668 5666 5665 5664 5662 5661 5660 5659 5659 5658 5657 5656 5655 5654 5653 5652 5652 5652 5652 5650 5649 5649 5648 5647 5647 5646 5646 5645
5685 5682 5680 5677 5675 5673 5671 5669 5666 5665 5663 5661 5659 5658 5656 5655 5654 5653 5652 5651 5650 5649 5648 5647 5645 5644 5643 5643 5643 5642 5641 5640 5639 5638 5637 5636 5636 5635
5682 5679 5676 5673 5670 5668 5666 5664 5661 5659 5657 5655 5653 5651 5650 5648 5647 5646 5644 5643 5641 5640 5639 5638 5637 5636 5635 5634 5633 5633 5632 5631 5629 5628 5627 5626 5626 5625
5677 5674 5671 5668 5665 5663 5660 5657 5655 5652 5650 5648 5646 5644 5642 5641 5639 5638 5636 5635 5633 5632 5630 5629 5628 5626 5625 5624 5623 5623 5622 5621 5620 5618 5617 5616 5614 5614
5672 5669 5666 5663 5660 5657 5654 5651 5648 5646 5643 5641 5639 5636 5634 5632 5631 5629 5627 5626 5624 5623 5621 5619 5618 5617 5615 5614 5613 5612 5611 5610 5609 5608 5607 5605 5604 5602